Flag for U.S.A. Weather past 2 weeks in Aurora, Colorado, U.S.A.

Now
38 °F

Passing clouds.


Feels Like: 27 °F
Forecast: 33 / 50 °F
Wind: 22 mph from South

Location: Buckley Air Force Base

Current Time: Jan 29, 2015 at 11:41:04 PM

Latest Report: Jan 29, 2015 at 10:58 PM


Visibility: 10 mi

Pressure: 30.30 "Hg

Humidity: 53%

Dew point: 22 °F

Location of AuroraLocation

Historic Weather in Aurora — Graph

°F

Aurora temperature yesterday

Maximum temperature yesterday: 58 °F (at 1:58 PM)
Minimum temperature yesterday: 33 °F (at 9:58 PM)
Average temperature yesterday: 46 °F

Past Weeks' High & Low Weather Summary

 TemperatureHumidityPressure
High73 °F (Jan 27, 2:58 PM)100% (Jan 20, 3:03 AM)30.54 "Hg (Jan 20, 3:03 AM)
Low11 °F (Jan 22, 3:58 AM)10% (Jan 27, 1:58 PM)29.78 "Hg (Jan 16, 3:58 PM)
Average40 °F48%30.14 "Hg
* Reported Jan 14 9:58 PM — Jan 29 9:58 PM, Aurora, Weather by CustomWeather, © 2014

Note: Actual official high and low records may vary slightly from our data, if they occured in-between our weather recording intervals... More about our weather records

Advertising

Aurora weather history for previous 24 hours

 ConditionsComfort  
Time TempWeatherWind HumidityBarometerVisibility
9:58 PM
Jan 29
38 °FOvercast.18 mph55%30.33 "Hg10 mi
8:58 PM39 °FOvercast.18 mph52%30.35 "Hg10 mi
7:58 PM39 °FPassing clouds.21 mph50%30.35 "Hg10 mi
6:58 PM39 °FPassing clouds.18 mph49%30.36 "Hg10 mi
5:58 PM36 °FPassing clouds.12 mph68%30.40 "Hg10 mi
4:58 PM41 °FPartly sunny.10 mph59%30.38 "Hg10 mi
3:58 PM44 °FPartly sunny.10 mph49%30.38 "Hg10 mi
2:58 PM45 °FPartly sunny.13 mph43%30.39 "Hg10 mi
1:58 PM45 °FBroken clouds.8 mph41%30.40 "Hg10 mi
12:58 PM43 °FBroken clouds.9 mph44%30.44 "Hg10 mi
11:58 AM41 °FBroken clouds.5 mph49%30.47 "Hg10 mi
10:58 AM39 °FMostly cloudy.1 mph54%30.50 "Hg10 mi
9:58 AM37 °FOvercast.1 mph61%30.54 "Hg10 mi
8:58 AM36 °FOvercast.5 mph69%30.53 "Hg10 mi
7:58 AM34 °FOvercast.6 mph81%30.52 "Hg10 mi
6:58 AM34 °FOvercast.2 mph78%30.48 "Hg10 mi
5:58 AM35 °FOvercast.5 mph76%30.43 "Hg10 mi
4:58 AM35 °FOvercast.6 mph78%30.39 "Hg10 mi
3:58 AM36 °FOvercast.7 mph77%30.37 "Hg10 mi
2:58 AM36 °FOvercast.5 mph81%30.34 "Hg10 mi
1:58 AM36 °FOvercast.6 mph84%30.32 "Hg10 mi
12:58 AM36 °FOvercast.5 mph80%30.32 "Hg10 mi
11:58 PM
Jan 28
35 °FOvercast.3 mph82%30.29 "Hg10 mi
Weather by CustomWeather, © 2014

See weather overviewHow to use our weather pages